FW3057 Weather Reports


Display with metric or nautical units.
time (UTC)temp
F
wind
direction
speed
MPH
gust
MPH
rain 1hr
in
rain 24hr
in
rain mn
in
humidity
%
barometer
mb
20260509210311 57 121 6.0 9.0 0.01 0.27 0.27 95 1013.1
20260509205311 57 122 6.0 10.0 0.02 0.27 0.27 95 1013.0
20260509202311 57 60 3.0 11.0 0.22 0.27 0.27 95 1012.9
20260509201311 57 63 4.0 8.0 0.22 0.27 0.27 95 1012.7
20260509200311 57 89 4.0 7.0 0.21 0.26 0.26 94 1012.5
20260509195311 57 79 9.0 13.0 0.20 0.24 0.24 93 1012.6
20260509194311 55 121 3.0 5.0 0.00 0.01 0.15 94 1013.3
20260509193311 58 84 7.0 14.0 0.08 0.13 0.13 90 1013.0
20260509191311 60 171 3.0 7.0 0.00 0.05 0.05 86 1013.1
20260509190311 60 139 2.0 4.0 0.00 0.05 0.05 86 1012.7
20260509185311 60 95 3.0 4.0 0.00 0.05 0.05 86 1012.5
20260509184311 60 72 3.0 8.0 0.00 0.05 0.05 87 1012.2
20260509183311 60 71 3.0 7.0 0.00 0.05 0.05 87 1012.4
20260509181311 60 46 1.0 4.0 0.00 0.05 0.05 87 1012.4
20260509180311 60 13 2.0 6.0 0.00 0.05 0.05 86 1012.2
20260509175311 60 347 3.0 6.0 0.00 0.05 0.05 86 1012.0
20260509174311 60 8 3.0 6.0 0.00 0.05 0.05 87 1012.0
20260509173311 60 59 2.0 3.0 0.00 0.05 0.05 87 1012.0
20260509172311 60 46 1.0 4.0 0.00 0.05 0.05 87 1011.9
20260509171310 60 206 1.0 3.0 0.00 0.05 0.05 87 1012.0
20260509170311 61 346 3.0 6.0 0.00 0.05 0.05 87 1012.0
20260509165310 61 1 3.0 5.0 0.00 0.05 0.05 87 1012.0
20260509164310 60 1 4.0 8.0 0.00 0.05 0.05 86 1012.0
20260509162310 61 83 3.0 10.0 0.00 0.05 0.05 87 1012.1
20260509160310 61 32 1.0 5.0 0.00 0.05 0.05 86 1011.9
20260509155310 61 73 4.0 7.0 0.00 0.05 0.05 84 1012.2
20260509154310 62 46 2.0 5.0 0.00 0.05 0.05 83 1012.3
20260509153310 62 1 1.0 5.0 0.00 0.05 0.05 83 1012.4
20260509151310 62 28 3.0 6.0 0.00 0.05 0.05 82 1012.6
20260509150310 63 245 2.0 6.0 0.00 0.05 0.05 83 1012.6
20260509145310 63 331 3.0 8.0 0.00 0.05 0.05 85 1012.6
20260509144310 63 327 3.0 6.0 0.00 0.05 0.05 86 1012.6
20260509143310 62 284 2.0 5.0 0.00 0.05 0.05 87 1012.6
20260509142310 62 1 2.0 5.0 0.00 0.05 0.05 90 1012.7
20260509141310 61 8 3.0 8.0 0.00 0.05 0.05 92 1012.7
20260509140310 60 269 1.0 4.0 0.02 0.05 0.05 92 1012.8
20260509135310 59 60 1.0 5.0 0.02 0.05 0.05 93 1012.9
20260509134310 58 13 1.0 7.0 0.02 0.05 0.05 93 1012.9
20260509133310 58 314 1.0 5.0 0.03 0.05 0.05 92 1012.9
20260509132310 58 58 4.0 9.0 0.03 0.05 0.05 92 1012.9
20260509131311 58 42 3.0 7.0 0.03 0.05 0.05 91 1012.9
20260509130310 58 84 5.0 7.0 0.02 0.03 0.03 90 1012.9
20260509124310 58 49 4.0 11.0 0.01 0.02 0.02 90 1013.1
20260509123311 58 108 7.0 12.0 0.00 0.02 0.02 89 1013.0
20260509122310 58 105 7.0 14.0 0.00 0.02 0.02 89 1013.0
20260509120311 59 88 6.0 12.0 0.00 0.02 0.02 87 1013.0
20260509115310 59 63 9.0 12.0 0.00 0.02 0.02 86 1012.9
20260509114310 59 88 7.0 12.0 0.00 0.02 0.02 85 1013.0
20260509113310 60 54 7.0 14.0 0.00 0.02 0.02 85 1012.9
20260509112310 60 58 9.0 12.0 0.00 0.02 0.02 84 1013.1
20260509111310 61 86 8.0 14.0 0.00 0.02 0.02 84 1013.1
20260509110311 60 72 7.0 14.0 0.00 0.02 0.02 85 1013.1
20260509105310 60 94 8.0 14.0 0.00 0.02 0.02 85 1013.0
20260509104310 60 52 8.0 15.0 0.00 0.02 0.02 84 1013.1
20260509103310 60 88 7.0 13.0 0.00 0.02 0.02 84 1013.1
20260509101310 61 65 4.0 10.0 0.00 0.02 0.02 83 1013.2
20260509100310 61 344 5.0 10.0 0.00 0.02 0.02 81 1013.3
20260509095310 61 66 6.0 8.0 0.00 0.02 0.02 82 1013.4
20260509094310 61 77 5.0 9.0 0.00 0.02 0.02 80 1013.4
20260509093310 61 147 4.0 9.0 0.00 0.02 0.02 82 1013.5
20260509092310 61 79 4.0 10.0 0.00 0.02 0.02 83 1013.6
20260509091310 60 110 6.0 11.0 0.00 0.02 0.02 85 1013.6
20260509090310 59 138 4.0 8.0 0.00 0.02 0.02 87 1013.4
20260509085309 58 115 3.0 7.0 0.00 0.02 0.02 87 1013.4
20260509084310 58 117 4.0 10.0 0.00 0.02 0.02 88 1013.5
20260509083309 58 128 4.0 7.0 0.00 0.02 0.02 90 1013.6
20260509080309 57 25 2.0 3.0 0.00 0.02 0.02 91 1013.6
20260509075309 56 89 4.0 6.0 0.00 0.02 0.02 91 1013.5
20260509074310 56 127 3.0 7.0 0.01 0.02 0.02 91 1013.6
20260509073309 56 178 2.0 6.0 0.01 0.02 0.02 91 1013.6
20260509072309 56 117 3.0 6.0 0.01 0.02 0.02 91 1013.4
20260509071309 56 46 4.0 6.0 0.01 0.02 0.02 91 1013.4
20260509065309 56 98 3.0 5.0 0.01 0.02 0.02 90 1013.4
20260509064309 56 135 4.0 8.0 0.00 0.01 0.01 89 1013.4
20260509063309 56 128 6.0 9.0 0.00 0.01 0.01 89 1013.4
20260509062309 56 127 4.0 8.0 0.00 0.01 0.01 90 1013.4
20260509061309 56 107 4.0 7.0 0.00 0.01 0.01 91 1013.4
20260509060309 55 81 4.0 7.0 0.00 0.01 0.01 92 1013.4
20260509054309 55 117 4.0 7.0 0.00 0.01 0.01 94 1013.3
20260509053309 55 100 3.0 5.0 0.00 0.01 0.01 94 1013.3
20260509052309 54 110 4.0 5.0 0.00 0.01 0.01 94 1013.3
20260509051309 54 98 2.0 4.0 0.00 0.01 0.01 93 1013.3
20260509045309 55 105 2.0 3.0 0.00 0.01 0.01 93 1013.3
20260509043310 55 148 1.0 2.0 0.01 0.01 0.01 93 1013.2
20260509042310 55 68 1.0 2.0 0.01 0.01 0.01 93 1013.2
20260509041310 55 145 0.0 1.0 0.01 0.01 0.01 93 1013.3
20260509040310 55 1 1.0 2.0 0.01 0.01 0.01 92 1013.4
20260509035310 55 231 1.0 4.0 0.01 0.01 0.01 92 1013.9
20260509034310 56 241 1.0 3.0 0.01 0.01 0.01 92 1014.1
20260509031310 55 198 3.0 6.0 0.00 0.00 0.00 92 1014.0
20260509030310 55 209 2.0 3.0 0.00 0.00 0.00 91 1013.7
20260509025310 56 152 1.0 2.0 0.00 0.00 0.00 91 1013.7
20260509024310 56 108 1.0 2.0 0.00 0.00 0.00 91 1013.6
20260509023310 56 124 1.0 2.0 0.00 0.00 0.00 91 1013.6
20260509022310 56 124 1.0 2.0 0.00 0.00 0.00 91 1013.4
20260509020310 56 161 1.0 3.0 0.00 0.00 0.00 91 1013.5
20260509015310 56 135 1.0 3.0 0.00 0.00 0.00 91 1013.5
20260509014310 56 124 2.0 3.0 0.00 0.00 0.00 91 1013.5
20260509013310 56 59 1.0 5.0 0.00 0.00 0.00 91 1013.4
20260509012310 56 114 3.0 6.0 0.00 0.00 0.00 92 1013.5
20260509011310 56 137 3.0 6.0 0.00 0.00 0.00 94 1013.5
20260509010310 56 197 2.0 5.0 0.00 0.00 0.00 94 1013.5
20260509003310 56 114 2.0 5.0 0.00 0.00 0.00 96 1013.3
20260509002310 56 83 3.0 5.0 0.00 0.00 0.00 96 1013.5
20260509000311 56 77 3.0 4.0 0.00 0.00 0.00 96 1013.4
20260508235309 57 83 2.0 4.0 0.00 0.00 0.00 95 1013.5
20260508234309 56 89 2.0 4.0 0.00 0.00 0.00 95 1013.5
20260508233309 56 84 3.0 4.0 0.00 0.00 0.00 95 1013.5
20260508231309 56 74 2.0 4.0 0.00 0.00 0.00 95 1013.8
20260508230309 57 77 2.0 4.0 0.00 0.00 0.00 95 1013.9
20260508225310 57 67 2.0 3.0 0.00 0.00 0.00 94 1013.8
20260508224310 57 2 2.0 3.0 0.00 0.00 0.00 94 1013.7
20260508223309 57 20 2.0 5.0 0.00 0.00 0.00 94 1013.8
20260508222309 57 343 2.0 5.0 0.00 0.00 0.00 94 1014.0
20260508221309 57 39 3.0 6.0 0.00 0.00 0.00 94 1014.1
20260508220310 57 32 2.0 4.0 0.00 0.00 0.00 94 1014.2
20260508214310 57 9 4.0 7.0 0.00 0.12 0.12 93 1014.2
20260508212310 57 349 2.0 5.0 0.00 0.12 0.12 92 1014.1
20260508211310 57 127 2.0 5.0 0.01 0.12 0.12 91 1014.1